Powrót do katalogu

KUIPER-00205

AktywnyŁącznośćLEO
NORAD 67774·PAYLOAD·🇺🇸 United States

Wystrzelony Feb 12, 2026 z Guiana Space Centre

Loading…

Następne Przeloty (najbliższe 24 godziny)

TLE

ŚwieżeSource: CelesTrak SupGP

Epoka: Sep 14, 2026, 13:40 UTC

1 67774C 26030L   26257.56952546 -.00018552  00000+0 -24289-2 0  2572
2 67774  51.8996  67.8737 0000679 101.7618 101.6015 14.79944044    16

Śledź KUIPER-00205 w czasie rzeczywistym z AllMySat

Download on the App Store